Weather Roundup
Issued by NWS Corpus Christi, TX

Home | Current Version | Previous Version | Text Only | Print | Product List | Glossary On
Versions: 1 2 3 4 5 6 7 8 9 10 11 12 13 14 15 16 17 18 19 20 21 22 23 24 25 26 27 28 29 30 31 32 33 34 35 36 37 38 39 40 41 42 43 44 45 46 47 48 49 50
000
ASUS44 KCRP 250210
HRRCRP

SOUTH TEXAS REGIONAL WEATHER ROUNDUP
NATIONAL WEATHER SERVICE CORPUS CHRISTI TX
900 PM CDT FRI MAR 24 2017


TXZ229>244-250300-
...CORPUS CHRISTI AREA OBSERVATIONS...

CITY           SKY/WX    TMP DP  RH WIND       PRES   REMARKS
CORPUS CHRISTI MOCLDY    75  68  78 S20       29.92R
NAS CORPUS CHR CLEAR    N/A N/A N/A S20G28    29.92R
ROCKPORT       CLEAR     73  68  84 S13G21    29.91R
KINGSVILLE NAS PTCLDY    76  69  79 S16       29.91R
ALICE          MOCLDY    77  65  66 S14       29.91R
ORANGE GROVE   CLEAR     76  67  73 S12       29.92R
FALFURRIAS     CLOUDY    80  64  57 S9G16     29.91R
$$

...VICTORIA AREA OBSERVATIONS...

CITY           SKY/WX    TMP DP  RH WIND       PRES   REMARKS
VICTORIA       CLOUDY    73  67  81 S14       29.92R
BEEVILLE       FAIR      75  68  78 S12       29.92R
PLEASANTON     CLEAR     66  58  75 CALM      29.91R
SAN ANTONIO    CLEAR     76  30  18 SW5       29.92R
$$

...LAREDO AREA OBSERVATIONS...

CITY           SKY/WX    TMP DP  RH WIND       PRES   REMARKS
LAREDO         CLEAR     79  61  53 E5        29.90R
COTULLA        PTCLDY    75  57  53 E3        29.90R
DEL RIO        CLEAR     70  33  25 SE3       29.89R
MCALLEN        CLEAR     78  67  68 SE15      29.93R
HEBBRONVILLE   CLEAR     77  64  64 CALM      29.93R
$$

...OTHER TEXAS OBSERVATIONS...

CITY           SKY/WX    TMP DP  RH WIND       PRES   REMARKS
BROWNSVILLE    PTCLDY    75  70  84 SE12      29.95R
HOUSTON        MOCLDY    75  67  76 S16G23    29.92R
COL. STATION   CLEAR     67  64  90 S10       29.90R
AUSTIN         PTCLDY    68  58  70 S7        29.89R
WACO           CLEAR     67  55  65 SW3       29.86R
FORT WORTH     PTCLDY    74  35  24 SW13      29.76R
WICHITA FALLS  PTCLDY    65  40  39 W28G38    29.78R
LUBBOCK        PTCLDY    52  34  50 N24       30.02R
EL PASO        CLEAR     69  20  15 W13       30.07R
$$

...MARINE OBSERVATIONS...

STATION/POSITION TIME  SKY/WX   TEMP    WIND        PRES    VSBY  WAVE   SWELL
                                AIR SEA DIR/SP/G                  HT/PER HT/PER
                 (UTC)          (F)     (DEG/KT/KT) (MB)    (MI)  (FT/S) (FT/S)
PORT ARANSAS     0100            71 72  150/ 20/ 23 1012.1F
BUOY 90 E PORT A 0150            75 72  160/ 21/ 25 1014.1R         9/ 8   7/ 8
BUOY 45 SE BAFFI 0150            73     160/ 12/ 16 1013.3R         8/ 8   8/ 8
BUOY 200 E PT IS 0150            76 76  150/ 17/ 21 1016.8R         9/ 8   3/16
BUOY 15 E GALVES 0150            72 70  170/ 19/ 25 1014.4R         6/ 8
$$




USA.gov is the U.S. government's official web portal to all federal, state and local government web resources and services.